DW2806 Weather Reports


Display with metric or nautical units.
time (UTC)temp
F
wind
direction
speed
MPH
gust
MPH
rain 1hr
in
rain 24hr
in
rain mn
in
humidity
%
barometer
mb
20260509134530 49 93 0.0 0.0 0.00 0.46 0.46 85 1025.7
20260509133029 50 93 0.0 0.0 0.00 0.46 0.46 84 1025.7
20260509131535 50 93 0.0 0.0 0.00 0.46 0.46 79 1025.7
20260509130031 51 93 0.0 0.0 0.00 0.46 0.46 74 1025.7
20260509124534 50 93 0.0 0.0 0.00 0.46 0.46 72 1025.7
20260509123032 49 93 0.0 0.0 0.00 0.46 0.46 75 1025.7
20260509121520 48 93 0.0 0.0 0.00 0.46 0.46 81 1025.7
20260509120017 46 93 0.0 0.0 0.09 0.46 0.46 83 1025.7
20260509114513 45 93 0.0 0.0 0.10 0.46 0.46 86 1025.7
20260509113010 43 93 0.0 0.0 0.11 0.46 0.46 89 1025.7
20260509111508 42 93 0.0 0.0 0.12 0.46 0.46 90 1025.7
20260509110005 40 93 0.0 0.0 0.05 0.37 0.37 90 1025.7
20260509104513 39 93 0.0 0.0 0.04 0.36 0.36 90 1025.7
20260509103003 38 93 0.0 0.0 0.14 0.35 0.35 91 1025.7
20260509101503 37 93 0.0 0.0 0.34 0.34 0.34 91 1025.7
20260509100116 37 93 0.0 0.0 0.32 0.32 0.32 91 1025.7
20260509094604 36 93 0.0 0.0 0.32 0.32 0.32 90 1025.7
20260509093101 36 93 0.0 0.0 0.21 0.21 0.21 90 1025.7
20260509091606 36 93 0.0 0.0 0.00 0.00 0.00 90 1025.7
20260509090055 36 93 0.0 0.0 0.00 0.00 0.00 90 1025.7
20260509084553 36 93 0.0 0.0 0.00 0.00 0.00 89 1025.7
20260509083052 36 93 0.0 0.0 0.00 0.00 0.00 89 1025.7
20260509081602 37 93 0.0 0.0 0.00 0.00 0.00 89 1025.7
20260509080054 37 93 0.0 0.0 0.00 0.00 0.00 89 1025.7
20260509074549 37 93 0.0 0.0 0.00 0.00 0.00 89 1025.7
20260509073049 37 93 0.0 0.0 0.00 0.00 0.00 89 1025.7
20260509071547 38 93 0.0 0.0 0.00 0.00 0.00 88 1025.7
20260509070043 38 93 0.0 0.0 0.00 0.00 0.00 88 1025.7
20260509064541 38 93 0.0 0.0 0.00 0.00 0.00 87 1025.7
20260509063041 39 93 0.0 0.0 0.00 0.00 0.00 86 1025.7
20260509061550 39 93 0.0 0.0 0.00 0.00 0.00 85 1025.7
20260509060036 39 93 0.0 0.0 0.00 0.00 0.00 84 1025.7
20260509054540 40 93 0.0 0.0 0.00 0.00 0.00 83 1025.7
20260509053050 40 93 0.0 0.0 0.00 0.00 0.00 82 1025.7
20260509051531 41 93 0.0 0.0 0.00 0.00 0.00 81 1025.7
20260509050031 42 93 0.0 0.0 0.00 0.00 0.00 79 1025.7
20260509044525 42 93 0.0 0.0 0.00 0.00 0.00 78 1025.7
20260509043022 43 93 0.0 0.0 0.00 0.00 0.00 76 1025.7
20260509041520 44 93 0.0 0.0 0.00 0.00 0.00 74 1025.7
20260509040017 44 93 0.0 0.0 0.00 0.00 0.00 72 1025.7
20260509034517 45 93 0.0 0.0 0.00 0.00 0.00 71 1025.7
20260509033017 46 93 0.0 0.0 0.00 0.00 0.00 70 1025.7
20260509031516 47 93 0.0 0.0 0.00 0.00 0.00 68 1025.7
20260509030016 47 93 0.0 0.0 0.00 0.00 0.00 66 1025.7
20260509024518 48 93 0.0 0.0 0.00 0.00 0.00 65 1025.7
20260509023015 49 93 0.0 0.0 0.00 0.00 0.00 62 1025.7
20260509021515 50 93 0.0 0.0 0.00 0.00 0.00 59 1025.7
20260509020014 50 93 0.0 0.0 0.00 0.00 0.00 58 1025.7
20260509014514 50 93 0.0 0.0 0.00 0.00 0.00 57 1025.7
20260509013012 50 93 0.0 0.0 0.00 0.00 0.00 57 1025.7
20260509011513 51 93 0.0 0.0 0.00 0.00 0.00 59 1025.7
20260509010013 51 93 0.0 0.0 0.00 0.00 0.00 56 1025.7
20260509004527 52 93 0.0 0.0 0.00 0.00 0.00 53 1025.7
20260509003011 52 93 0.0 0.0 0.00 0.00 0.00 53 1025.7
20260509001511 53 93 0.0 0.0 0.00 0.00 0.00 53 1025.7
20260509000010 54 93 0.0 0.0 0.00 0.00 0.00 49 1025.7
20260508234510 55 93 0.0 0.0 0.00 0.00 0.00 46 1025.7
20260508233009 56 93 0.0 0.0 0.00 0.00 0.00 43 1025.7
20260508231513 57 50 0.0 0.0 0.00 0.00 0.00 41 1025.7
20260508230007 57 50 0.0 0.0 0.00 0.00 0.00 40 1025.7
20260508224506 58 50 0.0 0.0 0.00 0.00 0.00 39 1025.7
20260508223017 58 50 0.0 0.0 0.00 0.00 0.00 40 1025.7
20260508221506 58 50 0.0 0.0 0.00 0.00 0.00 39 1025.7
20260508220008 59 50 0.0 0.0 0.00 0.00 0.00 39 1025.7
20260508214507 59 50 0.0 4.0 0.00 0.00 0.00 37 1025.7
20260508213004 60 49 1.0 6.0 0.00 0.00 0.00 38 1025.7
20260508211507 60 70 0.0 6.0 0.00 0.00 0.00 37 1025.7
20260508210003 60 279 1.0 8.0 0.00 0.00 0.00 36 1025.7
20260508204503 60 160 1.0 7.0 0.00 0.00 0.00 37 1025.7
20260508203002 60 71 3.0 7.0 0.00 0.00 0.00 38 1025.7
20260508201602 60 74 0.0 5.0 0.00 0.00 0.00 37 1025.7
20260508200103 61 10 0.0 5.0 0.00 0.00 0.00 37 1025.7
20260508194557 60 42 1.0 6.0 0.00 0.00 0.00 36 1025.7
20260508193137 60 44 0.0 1.0 0.00 0.00 0.00 38 1025.7
20260508191603 60 29 0.0 1.0 0.00 0.00 0.00 37 1025.7
20260508190056 60 110 0.0 7.0 0.00 0.00 0.00 37 1025.7
20260508184555 61 4 0.0 6.0 0.00 0.00 0.00 37 1025.7
20260508183054 60 66 0.0 7.0 0.00 0.00 0.00 38 1025.7
20260508181555 60 8 0.0 5.0 0.00 0.00 0.00 40 1025.7
20260508180105 60 58 0.0 2.0 0.00 0.00 0.00 40 1025.7
20260508174602 61 54 0.0 8.0 0.00 0.00 0.00 38 1025.7
20260508173051 61 93 1.0 9.0 0.00 0.00 0.00 38 1025.7
20260508171551 60 75 1.0 6.0 0.00 0.00 0.00 42 1025.7
20260508170049 62 102 2.0 6.0 0.00 0.00 0.00 39 1025.7
20260508164550 62 150 0.0 6.0 0.00 0.00 0.00 38 1025.7
20260508163048 62 62 0.0 2.0 0.00 0.00 0.00 39 1025.7
20260508161546 62 34 0.0 4.0 0.00 0.00 0.00 38 1025.7
20260508160042 61 243 0.0 8.0 0.00 0.00 0.00 38 1025.7
20260508154541 59 51 0.0 6.0 0.00 0.00 0.00 39 1025.7
20260508153039 59 290 2.0 7.0 0.00 0.00 0.00 39 1025.7
20260508151538 60 29 0.0 0.0 0.00 0.00 0.00 38 1025.7
20260508150036 59 43 1.0 6.0 0.00 0.00 0.00 39 1025.7
20260508144534 60 56 1.0 6.0 0.00 0.00 0.00 38 1025.7
20260508143032 59 352 0.0 6.0 0.00 0.00 0.00 41 1025.7
20260508141528 59 139 0.0 5.0 0.00 0.00 0.00 40 1025.7
20260508140023 58 69 0.0 6.0 0.00 0.00 0.00 43 1025.7